[[{"header":{"parameterUnit":"m.s-1","parameterCategory":1,"la1":30.2991,"la2":30.254,"lo1":-89.0895,"lo2":-89.0444,"dy":0.0017,"dx":0.0017,"nx":28,"ny":28,"refTime":"2024-07-31T03:00:00:Z","depth":0,"parameterNumber":2,"parameterNumberName":"U-component_of_WINDS"},"data":[0,0,0,0,0,0,0,0,0,0,0,0,0,0,0,0,0,0,0,0,0,0,0,0,0,0,0,0,0,0,0,0,0,0,0,0,0,0,0,0,0,0,0,0,0,0,0,0,0,0,0,0,0,0,0,0,0,0,4.2861,4.2862,0,4.2997,4.2999,4.3,4.2937,4.2933,4.293,4.2926,4.3065,4.3072,4.3079,0,0,0,0,0,0,0,0,0,0,0,0,0,4.2543,4.2549,4.2861,4.2862,4.2864,4.2997,4.2999,4.3001,4.2937,4.2933,4.2929,4.2925,4.3063,4.3071,4.308,0,0,0,0,0,0,0,0,0,0,0,0,0,4.268,4.2551,4.286,4.2848,4.2849,4.2997,4.2999,4.3001,4.2938,4.2933,4.2928,4.2923,4.306,4.3071,4.3081,4.3248,0,0,4.3112,4.3117,0,0,0,0,0,0,0,0,4.2673,4.2692,4.2848,4.285,4.285,4.2945,4.2938,4.3084,4.2939,4.2904,4.2926,4.292,4.3029,4.3042,4.3079,4.3255,4.3261,4.3113,4.312,4.3124,4.3127,0,0,0,0,0,0,0,4.2663,4.2686,4.2915,4.2851,4.2852,4.2835,4.2849,4.2965,4.2994,4.2907,4.2902,4.292,4.3029,4.3069,4.3082,4.3263,4.3113,4.3122,4.3129,4.3133,4.3581,4.3586,0,0,0,0,0,0,4.2654,4.2678,4.291,4.2919,4.2747,4.2845,4.2861,4.292,4.2993,4.2999,4.2924,4.2916,4.3054,4.307,4.3086,4.3285,4.3124,4.3134,4.314,4.3575,4.3582,4.3588,0,0,0,0,0,0,4.2648,4.2676,4.2905,4.2798,4.2825,4.2856,4.2923,4.2925,4.2965,4.3006,4.301,4.296,4.305,4.3072,4.3208,4.3289,4.3138,4.3148,4.3568,4.3577,4.3585,4.3686,0,0,0,0,0,0,4.2639,4.2674,4.2738,4.2799,4.2831,4.3025,4.2928,4.2931,4.2983,4.2974,4.3041,4.3046,4.3048,4.3193,4.3218,4.3301,4.3156,4.3561,4.3572,4.3582,4.3676,4.3697,4.3716,0,0,0,0,0,4.2628,4.2762,4.2742,4.277,4.2913,4.303,4.3048,4.3048,4.299,4.3055,4.308,4.3044,4.3277,4.3207,4.3236,4.3323,4.3556,4.3569,4.3581,4.3667,4.3693,4.3715,0,0,0,0,0,0,4.2709,4.2769,4.2748,4.2906,4.2964,4.3019,4.3101,4.3076,4.315,4.3139,4.3135,4.315,4.3291,4.332,4.3242,4.3487,4.3407,4.3426,4.3463,4.3488,4.3507,4.3497,4.3165,0,0,0,0,0,4.2746,4.2836,4.2884,4.3019,4.3048,4.307,4.3121,4.3115,4.3174,4.3198,4.3234,4.3292,4.3378,4.3435,4.3516,4.368,4.3692,4.3754,4.3773,4.379,4.3806,4.3892,4.3919,4.363,4.363,4.3629,0,0,4.2822,4.2866,4.2923,4.3036,4.308,4.3173,4.3091,4.3193,4.3262,4.3214,4.3344,4.3372,4.3437,4.3587,4.3655,4.3616,4.3888,4.3806,4.3818,4.3826,4.3908,4.3935,4.3959,4.3638,4.3637,4.3635,0,0,4.3007,4.3051,4.3167,4.3212,4.3279,4.3292,4.332,4.338,4.3396,4.3527,4.3493,4.3574,4.3723,4.3769,4.3813,4.4015,4.3983,4.4041,4.4145,4.4229,4.4252,4.4272,4.4342,4.4367,4.4057,4.4058,4.4058,0,4.3093,4.3232,4.3229,4.3334,4.3384,4.3345,4.3461,4.3505,4.3596,4.363,4.3586,4.377,4.3811,4.397,4.4019,4.4057,4.4087,4.4033,4.4249,4.4269,4.4288,4.4354,4.4381,4.4064,4.4063,4.4063,4.4062,0,4.3334,4.3431,4.3516,4.3604,4.3663,4.3774,4.3786,4.3847,4.3836,4.3853,4.3986,4.4034,4.4123,4.4161,4.4151,4.4318,4.4292,4.4249,4.4168,4.4322,4.4384,4.441,4.4073,4.4071,4.4069,4.4068,0,0,4.3575,4.3658,4.369,4.3728,4.3799,4.3873,4.3981,4.4068,4.4119,4.4183,4.4272,4.4398,4.4357,4.4406,4.4402,4.4476,4.463,4.4423,4.4424,4.4458,4.4815,4.4845,4.4875,4.461,4.4615,4.4619,4.4808,0,4.3764,4.3952,4.3952,4.4126,4.4214,4.4178,4.4271,4.4324,4.4343,4.442,4.4441,4.4529,4.4471,4.45,4.4572,4.4596,4.4701,4.4583,4.4691,4.4695,4.4675,4.4908,4.4942,4.5118,4.4833,4.4837,4.484,0,4.401,4.408,4.4263,4.4318,4.4356,4.444,4.4518,4.4593,4.4652,4.466,4.4715,4.4698,4.4806,4.4724,4.4871,4.4791,4.4835,4.4854,4.4861,4.4869,4.4776,4.4921,4.5174,4.52,4.4879,4.4876,4.4873,0,4.4164,4.4305,4.4432,4.4466,4.4535,4.4595,4.4626,4.468,4.4732,4.4801,4.4834,4.4915,4.4959,4.5021,4.5026,4.4966,4.5175,4.5093,4.5183,4.5183,4.5227,4.5224,4.5489,4.526,4.5259,4.5259,4.5258,0,4.4374,4.4487,4.4502,4.458,4.4704,4.4703,4.4825,4.4852,4.4899,4.498,4.4955,4.5031,4.5035,4.5113,4.5118,4.5238,4.5259,4.5267,4.5267,4.5269,4.5267,4.5296,4.5283,4.5266,4.5264,4.5263,4.5262,0,4.4567,4.4583,4.4718,4.4772,4.4788,4.4877,4.4922,4.4996,4.5012,4.5115,4.5139,4.5165,4.5256,4.5267,4.5374,4.5377,4.5521,4.5508,4.5501,4.5498,4.5587,4.5578,4.5878,4.5916,4.5664,4.5667,4.5669,0,4.47,4.4785,4.4848,4.49,4.4935,4.502,4.5072,4.5074,4.5129,4.5202,4.5266,4.5354,4.5424,4.5571,4.5598,4.5679,4.5667,4.5766,4.5678,4.5677,4.5665,4.5659,4.5667,4.5783,4.5786,4.5788,4.579,0,4.4932,4.4935,4.5011,4.5091,4.5154,4.5216,4.5275,4.5319,4.5328,4.5392,4.5484,4.5538,4.5646,4.5733,4.5812,4.5843,4.5818,4.5817,4.5842,4.5844,4.5835,4.5838,4.5545,4.581,4.5808,4.5807,4.5805,4.5805,4.5097,4.517,4.5225,4.5311,4.5355,4.541,4.5481,4.5506,4.5583,4.5671,4.5667,4.5768,4.5823,4.5926,4.5963,4.6041,4.6008,4.6045,4.6053,4.6062,4.6069,4.5824,4.6056,4.6055,4.6055,4.6054,4.6054,0,4.5326,4.5359,4.5438,4.552,4.5588,4.5558,4.5621,4.5679,4.5768,4.5822,4.5891,4.5996,4.6079,4.6113,4.6195,4.6251,4.6241,4.6272,4.6267,4.6274,4.6096,4.6065,4.6278,4.6278,4.6278,4.6278,4.6278,4.6278,4.5452,4.5574,4.5583,4.5726,4.5759,4.5857,4.5895,4.5945,4.5988,4.6106,4.6175,4.6197,4.6242,4.6326,4.6401,4.6409,4.6439,4.6475,4.6477,4.631,4.6287,4.6265,4.6236,4.6482,4.6482,4.6648,4.665,4.6651]},{"header":{"parameterUnit":"m.s-1","parameterCategory":1,"la1":30.2991,"la2":30.254,"lo1":-89.0895,"lo2":-89.0444,"dy":0.0017,"dx":0.0017,"nx":28,"ny":28,"refTime":"2024-07-31T03:00:00:Z","depth":0,"parameterNumber":3,"parameterNumberName":"V-component_of_WINDS"},"data":[0,0,0,0,0,0,0,0,0,0,0,0,0,0,0,0,0,0,0,0,0,0,0,0,0,0,0,0,0,0,0,0,0,0,0,0,0,0,0,0,0,0,0,0,0,0,0,0,0,0,0,0,0,0,0,0,0,0,1.452,1.452,0,1.4523,1.4523,1.4523,1.45,1.4499,1.4498,1.4498,1.4501,1.4502,1.4503,0,0,0,0,0,0,0,0,0,0,0,0,0,1.4491,1.4491,1.452,1.452,1.452,1.4523,1.4523,1.4523,1.45,1.4499,1.4498,1.4498,1.4501,1.4502,1.4503,0,0,0,0,0,0,0,0,0,0,0,0,0,1.45,1.4492,1.452,1.4508,1.4507,1.4523,1.4523,1.4523,1.45,1.4499,1.4498,1.4497,1.4501,1.4502,1.4503,1.4529,0,0,1.4506,1.4507,0,0,0,0,0,0,0,0,1.4499,1.4501,1.451,1.4509,1.4508,1.451,1.4514,1.4525,1.45,1.4503,1.4498,1.4497,1.4505,1.4506,1.4508,1.4529,1.4529,1.4506,1.4507,1.4507,1.4508,0,0,0,0,0,0,0,1.4499,1.45,1.4521,1.451,1.4509,1.4503,1.4503,1.4516,1.4509,1.4503,1.4501,1.4502,1.4504,1.4507,1.4508,1.453,1.4506,1.4507,1.4508,1.4508,1.4569,1.457,0,0,0,0,0,0,1.45,1.45,1.4521,1.4521,1.4501,1.4504,1.4504,1.451,1.4509,1.4508,1.4502,1.4501,1.4506,1.4507,1.4508,1.4537,1.4507,1.4508,1.4509,1.4568,1.457,1.4571,0,0,0,0,0,0,1.4499,1.4502,1.4521,1.451,1.4512,1.4506,1.4513,1.4511,1.4514,1.4509,1.4508,1.4507,1.4505,1.4507,1.4524,1.4537,1.4509,1.451,1.4567,1.4569,1.457,1.4597,0,0,0,0,0,0,1.4498,1.4502,1.4512,1.4511,1.4513,1.4537,1.4514,1.4512,1.4516,1.4514,1.4513,1.4512,1.4505,1.4522,1.4525,1.4538,1.451,1.4566,1.4568,1.457,1.4595,1.4599,1.4603,0,0,0,0,0,1.4497,1.452,1.4513,1.4516,1.4526,1.4538,1.4539,1.453,1.4517,1.4527,1.4524,1.4512,1.4535,1.4524,1.4527,1.4541,1.4565,1.4567,1.457,1.4593,1.4598,1.4603,0,0,0,0,0,0,1.4525,1.452,1.4512,1.4535,1.4537,1.4534,1.4546,1.4536,1.4542,1.4539,1.4528,1.4528,1.4546,1.4545,1.4532,1.4565,1.4548,1.4551,1.4565,1.457,1.4574,1.4574,1.4511,0,0,0,0,0,1.4533,1.4543,1.4539,1.4559,1.4561,1.4553,1.4558,1.4551,1.4552,1.4553,1.4551,1.4552,1.4559,1.4565,1.4571,1.4594,1.4593,1.4605,1.4609,1.4613,1.4615,1.4625,1.463,1.4578,1.4578,1.4578,0,0,1.4551,1.455,1.4557,1.4565,1.4565,1.4575,1.4554,1.4566,1.4573,1.4555,1.457,1.4568,1.4569,1.4588,1.4597,1.4588,1.4629,1.4615,1.4618,1.4619,1.4628,1.4633,1.4637,1.4579,1.4579,1.4579,0,0,1.4589,1.459,1.4606,1.4606,1.4607,1.4602,1.4605,1.4603,1.4601,1.4616,1.4602,1.4609,1.4623,1.4624,1.4626,1.4661,1.4649,1.4663,1.4684,1.4694,1.4698,1.4702,1.4713,1.4717,1.4666,1.4666,1.4666,0,1.4612,1.4626,1.4616,1.4628,1.4631,1.4614,1.4629,1.463,1.4633,1.4635,1.4625,1.464,1.464,1.4658,1.4666,1.4669,1.4672,1.4663,1.4698,1.4702,1.4705,1.4715,1.472,1.4667,1.4667,1.4667,1.4667,0,1.4653,1.4663,1.4676,1.4678,1.4683,1.4697,1.4687,1.4693,1.4684,1.468,1.4694,1.4692,1.4697,1.4701,1.4694,1.4718,1.4712,1.4701,1.4683,1.4712,1.4721,1.4725,1.4669,1.4669,1.4668,1.4668,0,0,1.471,1.4704,1.4709,1.4709,1.4707,1.4714,1.4726,1.4731,1.4735,1.4737,1.4746,1.4757,1.4745,1.4748,1.474,1.4748,1.4774,1.4736,1.4735,1.4742,1.4798,1.4806,1.4811,1.4766,1.4767,1.4768,1.4798,0,1.4745,1.4766,1.4756,1.4778,1.4786,1.4768,1.4779,1.4778,1.4773,1.4779,1.4774,1.4781,1.4766,1.4767,1.4775,1.4769,1.4785,1.4767,1.4774,1.4774,1.4774,1.4817,1.4826,1.4854,1.4802,1.4802,1.4803,0,1.4791,1.4793,1.4816,1.481,1.4813,1.4823,1.4824,1.483,1.4829,1.4824,1.4826,1.4815,1.4825,1.4808,1.4821,1.4809,1.4811,1.4808,1.4809,1.4809,1.479,1.4817,1.4863,1.4867,1.4809,1.4808,1.4808,0,1.4828,1.4837,1.4851,1.4851,1.4846,1.4853,1.485,1.4848,1.485,1.4852,1.4853,1.4856,1.4857,1.4859,1.4849,1.4837,1.4863,1.4845,1.4858,1.4859,1.4865,1.4864,1.4911,1.4867,1.4867,1.4867,1.4867,0,1.4869,1.4883,1.4867,1.4876,1.489,1.4878,1.4892,1.4888,1.4885,1.4892,1.4877,1.4884,1.487,1.4875,1.4867,1.4878,1.4879,1.4875,1.4872,1.4876,1.4876,1.4877,1.4874,1.4868,1.4868,1.4868,1.4867,0,1.4913,1.4904,1.4917,1.491,1.4908,1.4919,1.4913,1.492,1.4913,1.4921,1.4923,1.4912,1.4917,1.4906,1.491,1.4904,1.492,1.4914,1.492,1.4918,1.4932,1.493,1.498,1.4986,1.4939,1.4939,1.494,0,1.494,1.495,1.4943,1.4946,1.4944,1.495,1.4952,1.4939,1.4942,1.4939,1.4946,1.4949,1.4951,1.4958,1.4951,1.4953,1.4947,1.4964,1.4947,1.4949,1.4946,1.4945,1.4945,1.4968,1.4968,1.4969,1.4969,0,1.4987,1.4981,1.4985,1.4986,1.4988,1.4989,1.4988,1.4991,1.4977,1.4981,1.4985,1.4986,1.4988,1.4991,1.4991,1.4988,1.4976,1.4974,1.4977,1.4981,1.4983,1.4981,1.4929,1.4973,1.4973,1.4973,1.4972,1.4972,1.5022,1.503,1.5025,1.5029,1.5027,1.5026,1.5031,1.5025,1.5028,1.5029,1.5021,1.5026,1.5022,1.502,1.5018,1.5021,1.5013,1.5018,1.5019,1.502,1.5022,1.4983,1.5021,1.5021,1.5021,1.5021,1.502,0,1.5068,1.5064,1.5067,1.5066,1.5068,1.5056,1.5054,1.5057,1.5062,1.5059,1.506,1.5064,1.5065,1.5057,1.5058,1.5062,1.5056,1.5062,1.5062,1.5061,1.5029,1.5026,1.5067,1.5067,1.5067,1.5067,1.5067,1.5067,1.5092,1.5103,1.5096,1.5105,1.5101,1.5105,1.5105,1.5104,1.5101,1.5105,1.5107,1.5101,1.5095,1.5095,1.5096,1.5093,1.5093,1.5101,1.5097,1.5068,1.5063,1.5059,1.5056,1.5102,1.5102,1.5127,1.5128,1.5128]}]]